Regional Weather Roundup
Issued by NWS Upton, NY

Current Version | Previous Version | Text Only | Print | Product List | Glossary On
Versions: 1 2 3 4 5 6 7 8 9 10 11 12 13 14 15 16 17 18 19 20 21 22 23 24 25 26 27 28 29 30 31 32 33 34 35 36 37 38 39 40 41 42 43 44 45 46 47 48 49 50
000
ASUS41 KOKX 221805
RWROKX

REGIONAL WEATHER ROUNDUP
NATIONAL WEATHER SERVICE NEW YORK NY
200 PM EDT TUE JUL 22 2014

NOTE: "FAIR" INDICATES FEW OR NO CLOUDS BELOW 12,000 FEET WITH NO
SIGNIFICANT WEATHER AND/OR OBSTRUCTIONS TO VISIBILITY.

NYZ071-072-176-178-NJZ106-104-221900-
NEW YORK CITY METRO AREA


CITY           SKY/WX    TMP DP  RH WIND       PRES   REMARKS
CENTRAL PARK   MOSUNNY   84  67  56 CALM      30.14F
LAGUARDIA APRT PTSUNNY   85  65  51 S12G17    30.11S
KENNEDY INTL   MOSUNNY   83  67  58 S15       30.14S
NEWARK/LIBERTY PTSUNNY   87  66  49 W9        30.12S
BRNX BOT. GARD   N/A     86  64  48 W3        30.11F
TETERBORO      MOSUNNY   89  66  46 W10       30.10F HX  91
$$

NYZ177-179-078>081-221900-
LONG ISLAND NEW YORK

CITY           SKY/WX    TMP DP  RH WIND       PRES   REMARKS
FARMINGDALE    SUNNY     83  67  58 SW13      30.13S
ISLIP          MOSUNNY   84  66  54 SW12      30.11F
SHIRLEY        SUNNY     81  67  62 S14       30.14S
WESTHAMPTON    SUNNY     80  66  62 SW12G20   30.15S
MONTAUK POINT    N/A     82  68  62 SW5       30.14F
$$

NYZ052-065-067-221900-
HUDSON VALLEY

CITY           SKY/WX    TMP DP  RH WIND       PRES   REMARKS
WHITE PLAINS   MOSUNNY   84  65  52 CALM      30.12F
NEWBURGH       NOT AVBL
MONTGOMERY     PTSUNNY   86  70  58 SW7       30.10F HX  90
POUGHKEEPSIE   MOSUNNY   86  68  54 SW7       30.08F
ALBANY         MOSUNNY   86  68  54 S7        30.06F
$$

NJZ001-105-106-008-010-013-015-019>022-104-221900-
NEW JERSEY

CITY           SKY/WX    TMP DP  RH WIND       PRES   REMARKS
NEWARK/LIBERTY PTSUNNY   87  66  49 W9        30.12S
TETERBORO      MOSUNNY   89  66  46 W10       30.10F HX  91
CALDWELL       MOSUNNY   85  66  53 VRB7      30.12F
MORRISTOWN     PTSUNNY   88  70  55 SW8G16    30.12F HX  92
SOMERVILLE     PTSUNNY   84  69  60 VRB5      30.11F
LINDEN         FAIR      87  67  50 NW8       30.14F HX  90
SUSSEX         MOSUNNY   87  69  54 SW7       30.12F HX  91
ANDOVER          N/A     82  67  60 SW7       30.13F
TRENTON        MOSUNNY   85  66  53 W7        30.13F
MILLVILLE      SUNNY     83  65  54 SE8       30.16S
ATLANTIC CITY  SUNNY     82  65  56 S8        30.16S
WRIGHTSTOWN    PTSUNNY   85  67  55 SW7       30.12S
TOMS RIVER     PTSUNNY   88  64  45 SW7       30.15S
BELMAR         PTSUNNY   82  66  57 SE6       30.15R
$$

PAZ047>061-062-071-221900-
EASTERN PENNSYLVANIA

CITY           SKY/WX    TMP DP  RH WIND       PRES   REMARKS
PHILADELPHIA   MOSUNNY   86  64  47 SW9       30.14F
ALLENTOWN      PTSUNNY   83  70  64 W8        30.14F
SCRANTON       SUNNY     84  66  54 W10G16    30.13F
$$

CTZ002-004>006-009-010-012-RIZ004-006-007-MAZ004-011-015-221900-
SOUTHERN NEW ENGLAND
 IN CT

CITY           SKY/WX    TMP DP  RH WIND       PRES   REMARKS
BRADLEY INTL   MOSUNNY   89  63  41 S8        30.07F HX  90
HARTFORD       SUNNY     88  63  43 VRB7      30.08F
DANBURY        MOSUNNY   84  66  54 W6        30.13F
WTRBRY/OXFORD  MOSUNNY   82  66  57 VRB7      30.15
BRIDGEPORT     SUNNY     87  66  49 SW13      30.11F
MERIDEN        MOSUNNY   87  65  47 W9        30.10F
NEW HAVEN      MOSUNNY   85  66  53 SW7       30.11F
CHESTER        FAIR      82  66  57 SW7       30.13F
GROTON         SUNNY     80  66  62 SW10      30.11F
WILLIMANTIC    MOSUNNY   87  63  44 VRB7      30.10F

 IN RI

CITY           SKY/WX    TMP DP  RH WIND       PRES   REMARKS
PROVIDENCE     MOSUNNY   84  70  62 S14       30.10F
BLOCK ISLAND   SUNNY     79  64  61 SW14      30.14S
WESTERLY       SUNNY     83  64  52 SW9       30.12F

 IN MA

CITY           SKY/WX    TMP DP  RH WIND       PRES   REMARKS
BOSTON         MOSUNNY   78  66  66 E13       30.07F
WORCESTER      SUNNY     83  61  47 SW7       30.13F
WESTFIELD      SUNNY     89  68  49 MISG      30.07F HX  93
PROVINCETOWN   SUNNY     81  68  65 S12       30.10F
NANTUCKET      SUNNY     72  65  78 S10       30.14F
$$

ANZ330-335-338-340-345-350-353-355-221900-
COASTAL MARINE OBSERVATIONS


STATION/POSITION TIME  SKY/WX   TEMP    WIND        PRES    VSBY  WAVE
                                AIR SEA DIR/SP/G                  HT/PER
                 (UTC)          (F)     (DEG/KT/KT) (MB)    (MI)  (FT/S)
NY HARB ENTRANCE NOT AVBL
4S FIRE IS       NOT AVBL
23SW MTP         1800            72 71              1020.3          2/ 8
HUDSON CANYON    1800            73 74  220/  8/ 10 1021.3          2/ 8
EXECUTION ROCKS  1800            81 73  200/  6/  8   N/A
WESTERN LI SOUND 1700            79     230/  6/  6   N/A           0
CENTRAL LI SOUND 1700            75 74  260/  6/  6   N/A           1/ 2
EASTERN LI SOUND 1700            72 67  250/  4/  6   N/A
ROBBINS REEF     1700            76     160/ 15/ 17   N/A
$$


>>>>>>>>>>>>>>>>>>>>>>>>>>>> KEY <<<<<<<<<<<<<<<<<<<<<<<<<<<
>                                                          <
>     SKY/WX - SKY CONDITION/PRESENT WEATHER               <
>     TMP    - TEMPERATURE IN FAHRENHEIT                   <
>     DP     - DEWPOINT IN FAHRENHEIT                      <
>     RH     - RELATIVE HUMIDITY IN PERCENT                <
>     WIND   - DIRECTION AND SPEED IN MPH                  <
>     PRES   - MEAN SEA LEVEL PRESSURE IN INCHES OF HG     <
>     WCI    - WIND CHILL INDEX                            <
>     VSB    - VISIBILITY IN MILES                         <
>     HX     - HEAT INDEX                                  <
>     TC     - TEMPERATURE IN CELSIUS                      <
>     VRB    - VARIABLE WIND DIRECTION                     <
>                                                          <
>>>>>>>>>>>>>>>>>>>>>>>>>>>> KEY <<<<<<<<<<<<<<<<<<<<<<<<<<<




USA.gov is the U.S. government's official web portal to all federal, state and local government web resources and services.